Theta_e
310 310 310 311 314 316 316 316 316 319 324 326 326 327 327 326 322 319 319 323 326 324 324 325 323 322 323 322 318 317 318 318 318 319 319 320 320 321 322 322 322 323 323 324 325 327 327 327 328 326 326 326 328 327 320 318 317 319 327 328 324 325 323 321 321 317 317 319 313 313 318 321 322 318 317 320 321 321 322 323 325 326 324 323 323 322 321 323
310 310 310 311 312 314 315 316 315 316 321 325 326 327 328 328 326 321 317 319 326 324 323 325 322 319 320 321 319 318 318 317 318 318 319 319 320 322 323 324 324 325 325 326 327 329 329 327 326 326 326 327 327 325 320 317 316 320 326 325 326 328 321 316 316 313 314 315 312 313 316 319 321 318 318 320 320 321 324 324 324 326 325 323 323 323 322 322
310 310 310 310 311 312 314 314 314 314 319 323 325 327 328 329 328 323 318 322 327 324 323 324 321 318 318 318 318 318 317 317 318 318 318 319 321 322 323 325 325 326 326 327 328 328 327 326 326 326 326 326 325 324 319 316 315 317 320 325 328 323 316 313 313 312 313 313 311 312 313 316 319 318 319 319 320 322 324 324 323 325 325 324 323 324 323 322
310 310 309 309 310 311 313 314 314 313 316 320 323 326 327 328 328 323 320 324 326 322 322 323 320 318 319 318 317 317 317 318 318 317 318 319 321 322 323 326 326 326 327 327 327 324 322 324 325 325 326 322 321 323 319 316 316 314 318 325 322 314 314 313 312 312 312 312 312 312 313 315 317 318 318 318 321 323 322 321 322 322 322 323 323 324 324 322
310 310 309 308 309 311 313 314 315 314 314 317 321 324 325 327 328 324 321 324 324 321 321 323 321 319 319 318 317 316 316 320 320 318 320 321 321 322 324 327 327 326 326 326 326 324 320 322 325 325 324 319 318 323 320 317 315 314 315 317 313 311 314 313 311 313 311 312 312 312 313 315 316 316 318 318 320 321 320 320 321 320 320 322 322 323 324 323
310 309 309 308 309 310 312 314 316 316 315 315 318 320 323 325 327 325 321 321 323 321 320 322 322 320 319 319 318 317 317 321 322 322 324 323 323 325 326 327 326 326 326 326 326 325 321 321 324 323 320 317 318 321 320 316 316 317 315 312 312 311 313 313 312 313 312 311 312 312 314 314 315 316 317 318 319 319 318 319 319 320 321 321 322 323 324 324
310 308 308 308 309 310 311 313 315 316 316 315 315 316 319 323 326 327 323 321 322 322 320 320 321 320 320 321 321 320 319 321 322 324 326 324 325 327 327 327 326 326 325 326 326 326 323 320 322 321 319 318 317 316 316 315 315 319 318 314 314 312 312 313 312 312 313 312 312 312 313 313 315 316 316 317 319 319 318 319 319 320 320 321 322 323 323 323
309 308 308 308 308 310 310 312 314 316 316 315 314 313 315 319 324 326 324 322 322 322 320 319 319 319 320 320 320 320 320 322 322 323 325 324 325 326 325 325 326 326 325 326 326 326 324 321 320 319 318 320 318 314 313 313 314 317 320 316 314 313 313 313 312 312 313 313 312 312 312 313 315 315 314 316 319 318 319 318 319 319 319 320 321 322 323 323
308 307 307 307 308 309 310 311 312 314 316 316 315 312 312 316 319 323 325 323 322 322 321 320 318 318 319 319 319 319 321 323 322 322 323 325 325 324 323 323 324 325 325 325 325 326 324 321 320 319 318 318 317 314 312 315 316 315 317 315 312 313 313 312 312 312 312 312 313 313 313 313 314 314 314 316 317 317 318 319 319 319 319 320 320 320 322 322
308 307 307 307 307 308 309 310 310 311 314 316 315 313 313 314 315 320 324 323 323 323 321 321 320 319 319 318 319 320 322 323 323 322 323 325 325 323 323 323 324 324 324 325 325 325 325 323 319 319 319 317 316 315 313 316 317 313 314 314 313 313 313 313 313 312 312 312 312 315 314 312 312 314 317 317 317 317 318 319 319 319 319 319 320 320 320 321
308 308 307 307 307 307 308 310 310 310 311 314 315 314 314 313 312 317 323 324 324 323 322 322 321 320 319 318 320 320 321 322 322 322 322 324 325 323 323 323 323 323 323 324 325 325 326 324 319 319 321 317 315 315 313 314 314 312 313 313 312 313 313 313 313 312 312 312 312 314 313 311 311 314 317 317 317 317 317 318 318 319 319 319 319 320 320 321
309 308 308 307 307 307 308 309 311 310 310 312 314 315 313 312 311 314 320 323 324 324 322 321 321 320 320 320 320 320 321 322 322 322 322 323 324 324 324 323 322 324 324 323 325 325 325 324 320 322 323 318 316 316 316 314 312 312 313 315 315 315 315 313 312 312 311 312 312 312 314 314 313 314 316 316 317 317 317 317 318 318 319 319 319 320 320 321
309 309 308 308 307 307 307 308 310 310 309 311 313 314 314 313 312 312 317 322 323 323 322 321 320 319 320 322 320 318 320 321 321 322 321 322 323 322 323 322 322 324 325 324 324 325 325 324 322 323 322 317 316 317 317 314 313 315 314 317 320 320 318 313 311 312 312 312 312 312 317 320 317 314 314 314 315 316 316 317 317 318 318 318 319 320 320 321
309 309 309 308 307 307 307 307 309 310 309 310 312 314 313 313 313 312 316 319 320 322 322 320 318 318 319 322 321 319 319 321 322 321 321 322 322 322 322 321 322 323 324 324 324 325 325 324 324 323 320 318 317 316 317 314 314 317 316 319 322 321 323 317 310 312 313 312 312 313 317 321 320 315 313 314 314 315 316 316 316 317 317 318 319 319 320 321
308 309 309 308 307 306 307 307 309 310 309 309 311 313 313 313 314 314 315 316 317 320 322 321 319 319 320 322 321 320 318 320 322 322 321 321 321 322 322 322 323 323 324 324 324 325 325 325 324 321 317 317 317 316 318 319 319 319 321 324 321 319 326 323 312 311 315 313 310 314 317 318 318 315 313 313 313 314 315 316 316 316 317 317 318 318 319 320
308 308 308 308 307 306 306 307 308 310 310 309 311 312 312 311 312 314 314 315 315 317 321 323 321 320 321 321 321 320 319 319 322 322 322 321 322 322 322 323 323 324 324 324 324 325 324 323 321 318 315 315 317 318 320 322 321 319 323 326 321 321 325 324 315 309 311 312 310 313 316 319 318 314 313 313 312 313 314 315 315 316 316 316 317 317 318 319
308 308 308 307 307 307 306 307 308 309 310 310 310 312 312 310 310 312 313 313 312 315 319 323 323 321 321 320 320 321 320 319 321 322 322 321 322 322 322 323 324 324 325 324 324 322 321 320 317 316 314 314 316 320 324 324 321 318 320 323 321 322 321 322 321 311 308 311 312 313 313 318 319 314 314 314 312 312 312 313 314 315 315 316 316 317 317 318
308 307 307 307 307 306 306 307 308 309 309 310 310 312 312 311 310 311 313 311 310 312 315 318 321 322 321 319 319 321 320 319 320 322 322 322 322 322 322 323 324 324 323 320 319 318 318 315 314 315 314 314 315 320 327 325 322 320 320 322 320 318 318 321 322 313 310 313 313 313 313 315 316 313 313 314 312 312 311 312 313 313 314 315 315 316 316 316
307 307 307 307 306 306 306 306 307 308 309 309 309 310 312 312 311 311 313 312 310 311 313 315 320 323 322 320 319 320 320 319 320 322 323 322 323 323 322 323 323 322 319 317 315 314 314 313 313 316 316 316 315 319 326 324 323 323 321 322 321 320 318 317 318 311 309 314 314 314 315 314 315 314 312 312 311 311 311 311 312 312 313 314 314 315 315 315
307 306 306 306 306 306 305 305 306 307 307 308 309 310 312 313 313 313 313 313 312 311 312 315 320 321 320 320 320 321 321 321 321 322 322 323 323 322 321 321 319 318 317 317 316 312 313 315 315 317 317 316 315 319 323 322 321 320 318 320 319 320 320 316 316 310 307 313 316 314 315 314 315 315 312 310 311 310 310 311 311 312 313 313 314 314 314 315
306 306 306 306 306 306 305 305 305 306 306 307 308 310 312 312 312 312 313 313 312 311 311 314 317 316 316 319 320 321 322 321 321 322 322 321 322 320 318 317 317 317 317 316 314 311 313 316 317 317 316 315 316 319 320 318 319 318 318 320 317 317 320 316 314 312 308 311 315 312 312 314 314 314 311 309 309 310 310 311 311 312 313 313 313 313 315 315
305 305 305 306 306 305 305 305 305 305 306 307 308 309 312 312 311 312 312 313 313 311 310 311 312 313 314 317 320 321 321 321 320 321 320 317 319 319 315 315 318 317 315 313 313 313 314 316 317 315 313 313 315 316 318 318 318 319 318 319 320 317 317 317 313 312 309 310 316 313 311 313 313 312 310 308 308 311 312 312 313 314 313 313 314 314 314 314
305 305 305 305 306 306 306 305 305 306 306 306 308 308 310 312 312 312 312 313 314 312 311 310 311 312 312 315 319 321 321 321 319 319 318 314 316 318 315 315 318 316 313 314 315 316 316 316 314 311 311 313 314 314 317 317 316 317 316 318 321 315 316 321 316 311 310 310 313 312 311 313 312 311 311 308 308 310 312 313 313 314 313 314 315 314 314 314
305 305 305 305 305 306 306 306 306 306 305 306 307 308 309 311 312 312 312 314 315 313 312 311 312 313 312 314 319 321 320 321 320 318 317 314 314 316 316 316 318 316 313 315 317 317 318 315 310 310 312 314 313 313 315 316 315 314 315 318 318 314 314 319 316 312 312 311 310 311 313 314 314 314 313 311 309 308 310 311 311 312 313 314 314 313 314 315
304 304 304 305 305 305 305 305 305 305 306 306 306 307 307 309 311 311 312 314 314 313 313 313 313 314 313 313 317 320 321 320 320 319 317 315 315 315 316 316 318 317 314 315 317 317 316 311 309 312 313 313 313 313 314 316 316 313 314 317 317 316 314 314 315 314 313 315 312 311 316 320 322 319 315 314 312 310 310 308 309 312 313 313 313 314 315 315
304 304 304 304 305 305 305 305 305 305 305 306 306 306 306 307 309 310 312 313 313 313 313 313 314 314 314 313 315 319 322 320 319 319 316 316 316 316 317 315 315 317 315 314 317 316 312 308 310 313 313 314 314 313 314 316 316 316 317 317 315 316 316 314 314 315 317 319 312 309 315 321 320 317 316 317 315 314 311 307 307 310 312 313 314 315 315 316
303 303 303 304 304 304 305 305 305 304 305 306 306 306 306 307 309 309 311 313 313 314 313 314 314 315 315 314 315 320 322 319 318 317 315 315 315 315 317 314 312 315 313 314 320 317 310 309 311 313 313 314 314 313 314 315 317 321 319 315 314 315 316 316 315 316 317 317 314 311 313 315 315 315 317 316 315 315 314 310 308 308 312 314 314 316 316 316
303 303 303 303 304 304 304 305 305 304 305 307 307 306 306 307 309 309 311 313 315 315 315 315 314 315 317 316 317 319 319 319 319 317 314 313 314 314 317 315 313 314 310 315 324 314 308 311 312 313 314 313 314 314 314 315 319 320 316 312 313 316 318 318 316 315 313 313 315 315 312 312 316 319 317 314 314 314 314 315 311 308 311 314 314 316 316 316
303 303 303 303 303 304 303 304 304 304 305 305 306 306 307 307 308 310 312 314 316 316 315 316 315 316 317 318 319 318 317 319 319 316 313 312 313 313 315 315 313 312 309 314 321 312 306 310 310 312 315 313 315 314 312 317 317 312 311 313 315 317 319 317 316 317 312 311 315 314 312 313 317 322 318 312 313 313 313 316 312 309 313 314 314 316 316 317
303 303 302 303 303 303 303 303 303 304 305 305 305 306 307 308 309 311 312 313 317 317 315 316 316 316 319 319 318 316 316 317 315 314 313 312 311 311 312 313 311 313 313 313 315 310 306 307 308 311 313 311 312 309 307 314 313 309 312 315 315 317 319 318 319 318 313 315 317 315 314 312 315 321 318 313 315 314 313 315 312 310 313 314 314 315 316 317
303 302 302 302 303 303 303 303 303 303 303 304 305 307 308 309 309 311 313 313 317 318 316 316 317 317 319 320 317 316 316 315 313 314 314 312 311 310 312 313 310 312 315 313 312 309 306 308 309 309 308 307 310 308 306 308 308 312 318 316 314 316 317 319 319 315 315 320 319 314 311 311 313 318 316 312 313 313 312 313 313 312 313 314 314 314 315 315
302 302 302 302 302 303 303 304 303 303 303 303 305 307 309 309 308 309 312 313 315 317 316 317 318 318 319 318 315 314 316 315 314 315 315 314 313 313 315 315 312 314 316 314 314 310 308 310 308 306 306 308 312 311 309 308 308 313 317 315 317 318 318 320 318 316 318 317 313 310 309 310 312 315 315 313 313 312 310 310 311 311 311 315 315 313 313 313
301 302 302 301 302 302 303 303 303 303 302 302 304 307 308 308 307 308 310 313 315 315 316 317 318 318 318 316 313 313 316 315 315 316 315 314 314 315 316 314 313 319 319 315 313 312 313 314 310 308 307 308 312 312 310 310 310 312 313 315 320 319 319 320 317 317 320 316 310 307 309 312 314 315 315 314 312 311 308 307 310 310 311 314 314 313 313 312
300 300 301 300 301 301 302 302 302 302 302 303 304 306 307 307 308 308 308 312 313 313 315 318 317 318 318 315 312 312 315 315 315 317 315 314 315 316 315 311 313 319 317 315 314 314 317 317 312 310 309 309 312 312 310 311 310 311 313 317 320 319 321 322 319 319 319 315 309 307 311 319 320 317 313 309 308 308 308 309 309 309 311 312 312 312 313 313
299 299 299 299 300 301 301 301 302 302 302 303 304 306 307 308 308 308 307 309 312 313 315 318 318 318 317 314 312 312 314 314 315 316 315 314 315 317 315 312 313 315 315 317 316 315 317 316 310 308 306 307 310 309 308 311 311 311 313 317 318 320 323 321 317 318 317 316 312 309 314 319 318 315 311 307 307 308 308 309 310 311 311 310 311 312 312 313
299 299 299 299 299 300 300 301 301 301 302 303 304 305 306 308 308 308 308 309 312 313 314 318 318 318 317 314 313 313 313 314 315 315 314 314 316 317 315 313 312 312 315 318 316 316 317 314 309 308 306 306 308 307 307 311 313 312 312 313 313 315 320 318 312 311 314 317 316 312 314 316 315 316 314 311 312 312 309 308 308 310 311 310 311 313 313 314
299 299 299 299 299 299 299 300 300 301 301 302 304 304 306 308 308 309 310 311 312 313 314 317 318 318 317 315 314 313 313 314 315 315 314 314 316 316 314 313 311 311 314 315 315 316 315 312 309 310 310 306 305 307 306 307 310 312 313 312 311 313 319 319 314 313 315 318 319 315 313 314 316 318 318 314 313 315 314 311 307 308 310 310 312 313 313 313
299 299 299 299 299 299 299 299 299 300 301 301 303 304 305 307 308 309 311 312 313 314 314 316 317 317 317 316 315 313 313 315 315 315 315 314 316 316 314 314 311 311 311 313 315 315 315 315 310 308 310 307 305 309 309 306 306 309 311 311 313 316 317 316 316 317 316 316 320 319 313 312 314 317 319 315 314 317 315 311 309 309 309 310 312 313 312 312
299 299 299 299 299 299 299 299 299 300 301 301 303 304 305 306 308 309 311 312 313 314 313 315 317 315 315 316 315 312 313 315 314 315 316 315 317 317 315 314 313 310 309 311 315 314 315 319 314 308 309 309 308 309 311 310 306 306 309 309 312 316 316 315 315 316 318 317 320 322 319 316 314 313 315 315 317 318 316 315 314 308 308 310 311 311 311 312
299 299 299 299 299 299 299 299 300 300 301 301 303 304 304 306 307 308 309 312 313 314 314 315 316 315 314 315 315 314 314 315 314 315 317 316 316 316 314 314 313 310 308 311 315 314 314 317 314 309 308 309 310 310 310 311 308 308 311 311 310 311 312 315 314 313 318 320 320 321 321 323 320 314 312 313 316 317 316 319 316 307 307 311 310 310 311 311
299 299 299 300 299 299 299 300 300 301 301 302 303 303 304 305 307 308 309 309 311 313 314 314 316 316 314 314 315 315 316 316 314 316 317 316 316 316 315 313 311 309 310 312 314 316 315 314 313 311 309 309 310 309 309 310 310 311 311 310 311 312 313 316 314 311 313 316 318 318 317 323 324 314 310 312 314 314 311 311 311 308 309 312 310 310 311 310
299 299 299 300 300 300 300 301 301 301 301 302 302 303 304 305 307 308 309 308 309 312 313 314 315 316 315 315 315 315 316 316 315 317 317 317 317 317 315 312 309 309 311 313 312 312 313 313 311 310 312 312 309 305 302 306 312 312 311 311 312 312 314 316 317 314 311 310 313 313 314 322 326 317 310 309 309 307 306 305 307 309 311 311 310 310 311 311
299 299 300 300 300 300 300 301 301 301 302 302 302 303 304 305 307 308 309 309 309 311 314 314 315 315 315 315 315 316 316 315 316 317 317 317 316 314 312 310 309 309 312 314 312 310 312 313 312 311 313 313 310 306 303 306 311 311 311 311 310 311 316 320 320 317 313 311 312 312 314 321 329 322 308 302 304 305 305 305 306 308 311 311 311 311 311 310
299 299 299 300 301 301 301 302 302 301 302 303 303 303 304 305 307 309 309 310 310 311 313 314 314 315 315 314 314 316 316 316 317 316 316 317 313 310 309 308 309 310 311 312 312 313 315 314 311 311 314 314 314 313 311 308 309 311 312 310 308 312 316 315 314 312 312 314 314 315 314 315 323 324 309 303 308 307 304 305 307 308 310 310 311 311 311 311
299 299 299 300 300 301 301 302 303 302 303 303 303 304 304 305 307 308 309 309 310 311 312 313 315 315 315 315 314 315 315 317 318 315 315 315 311 307 306 308 310 310 311 312 311 314 318 315 312 313 314 314 315 315 314 311 309 311 312 309 308 311 311 311 314 313 312 314 313 314 314 311 314 319 313 310 314 312 306 305 307 309 310 310 311 311 311 310
298 299 299 299 300 300 301 302 303 303 303 304 304 304 304 305 306 308 309 309 310 311 312 314 315 316 316 315 315 316 316 316 316 315 313 313 311 307 306 308 310 309 310 311 310 314 318 314 312 314 313 314 317 315 313 313 311 310 311 309 310 311 310 314 319 315 312 313 312 312 312 311 312 314 314 315 318 318 312 305 306 309 310 310 311 310 310 309
298 299 299 300 300 300 301 301 303 304 304 304 304 304 305 305 307 308 309 309 310 311 312 314 315 316 316 316 316 316 316 315 314 314 312 312 311 308 306 308 310 309 311 310 309 315 318 314 312 314 313 315 320 318 314 313 312 312 312 311 311 311 311 313 314 312 312 313 312 312 311 311 312 313 316 319 319 320 313 305 306 309 309 310 310 310 310 310
298 299 299 299 301 301 301 302 302 303 304 305 305 305 305 306 307 309 309 309 310 311 312 313 314 315 315 316 316 317 316 315 315 314 311 310 310 308 308 309 309 309 311 310 310 314 317 314 312 313 312 315 317 314 313 314 312 312 312 311 310 311 311 312 312 311 312 312 312 314 313 312 311 311 314 317 314 313 310 306 308 309 308 310 310 310 311 311
298 298 298 299 300 301 302 303 303 303 303 305 305 306 306 306 307 309 310 310 311 311 311 312 313 314 315 316 317 317 316 316 316 314 311 310 310 309 309 310 309 309 310 311 311 312 315 315 313 312 312 313 313 311 311 313 312 310 311 310 310 310 310 311 311 311 311 311 312 314 314 313 312 311 313 312 308 307 307 307 308 309 309 311 311 310 311 311
297 298 298 299 300 301 302 303 305 304 304 305 306 306 307 307 307 308 310 311 311 312 312 312 313 314 315 315 317 317 316 316 317 315 312 311 311 309 310 311 310 310 310 311 310 310 314 315 312 311 312 311 310 310 310 311 312 311 311 310 310 310 310 310 311 311 311 311 311 311 312 312 311 309 308 306 305 305 307 307 308 310 311 311 310 310 310 311
297 297 298 299 300 301 302 303 305 306 305 306 307 307 307 307 307 308 310 311 311 312 313 312 313 314 315 315 317 317 316 316 316 314 312 312 311 310 312 311 310 311 312 311 311 311 313 313 310 311 313 310 308 310 311 311 311 310 311 311 310 310 310 310 310 311 311 311 311 310 311 311 311 309 307 306 305 304 305 306 309 310 311 311 310 310 310 311
297 297 297 298 300 301 303 303 305 307 307 307 307 307 308 308 308 309 310 311 311 312 312 312 313 314 315 316 316 316 316 315 314 312 311 311 310 309 311 310 309 310 311 311 314 314 313 312 310 312 314 309 307 310 313 313 312 311 311 311 309 310 310 310 311 311 310 311 311 310 311 311 311 311 312 311 309 307 306 308 310 311 311 311 310 310 311 311
Wind_Speed
27 28 29 29 26 24 23 28 34 30 26 28 27 28 29 31 35 35 32 28 26 28 28 29 30 31 35 39 40 41 36 31 30 31 31 29 27 22 18 17 16 16 15 14 14 14 13 12 12 13 15 14 11 11 7 5 8 5 3 2 2 3 3 4 5 5 3 1 2 2 10 7 4 9 8 5 9 8 9 14 10 13 14 8 7 4 14 24
28 27 27 27 26 23 21 23 31 34 27 25 27 28 28 31 33 33 35 33 28 29 29 29 32 32 34 36 37 38 35 32 32 37 39 34 27 21 17 15 13 13 14 13 13 13 13 14 14 14 16 14 10 12 11 8 8 4 3 3 3 4 3 1 2 4 2 1 3 1 7 9 5 8 10 4 6 8 7 11 12 13 16 14 10 6 12 22
27 27 27 26 25 23 22 22 24 32 31 25 26 28 28 30 35 33 33 33 30 31 31 31 33 34 35 34 34 34 34 31 33 42 46 40 30 22 18 16 14 11 12 12 11 12 12 13 14 15 17 13 11 14 12 9 7 3 4 2 4 5 2 1 0 2 2 3 3 2 3 9 9 9 11 6 4 7 9 13 14 16 20 18 15 11 12 21
26 26 27 26 24 21 21 20 20 28 33 28 25 28 28 27 35 36 33 32 30 32 33 33 35 36 36 36 35 35 32 24 32 48 49 43 36 27 22 20 16 13 13 13 13 12 10 13 15 17 15 9 9 14 11 9 7 4 4 3 4 5 2 1 1 1 2 4 3 1 2 6 10 11 11 9 4 5 15 22 22 21 21 20 20 16 14 19
26 25 26 25 24 21 19 19 19 23 30 31 26 25 27 25 32 38 35 32 31 32 34 35 38 38 38 38 37 35 27 11 23 46 47 44 41 33 30 24 18 17 17 17 17 14 12 15 17 17 11 5 8 9 8 10 9 5 3 5 8 7 3 1 1 2 3 4 4 2 2 3 7 11 15 14 8 8 16 23 24 23 20 18 19 19 17 19
26 25 25 24 24 21 20 19 18 19 24 30 29 24 24 24 28 36 38 35 32 32 33 34 37 38 37 37 37 35 28 8 10 29 39 40 39 36 34 28 22 20 20 19 20 17 14 17 18 15 9 4 7 5 6 13 10 4 2 6 8 5 3 1 3 3 3 3 3 3 2 4 6 8 14 19 19 15 12 13 16 20 20 18 17 19 20 19
26 25 24 23 23 21 21 20 19 19 20 25 30 26 20 21 24 32 38 35 33 33 32 34 33 35 34 32 33 33 36 19 3 8 28 33 34 34 31 27 25 24 22 21 22 20 17 19 18 15 9 4 5 5 8 12 9 4 3 8 9 6 3 2 3 2 2 4 4 4 3 5 8 6 8 20 28 22 12 8 7 12 17 20 19 20 21 20
25 25 24 23 23 21 21 21 20 21 21 21 26 28 21 20 21 27 36 34 33 34 32 34 32 33 34 34 33 27 34 29 4 5 22 34 35 34 30 26 27 26 25 24 24 24 20 20 18 14 7 3 7 8 11 9 3 5 5 9 10 8 5 3 2 0 0 2 3 6 5 5 9 7 6 18 25 22 19 12 6 7 13 19 21 20 20 21
24 24 23 23 22 21 20 21 21 22 22 19 20 26 24 20 18 21 32 34 32 34 34 34 32 33 35 37 33 21 30 36 12 4 19 35 35 32 32 30 30 28 26 25 23 23 21 20 20 14 5 5 10 11 13 7 2 7 8 9 10 8 4 2 1 0 1 2 2 5 5 4 8 7 9 19 21 18 20 18 12 9 11 17 20 21 21 21
23 23 23 22 22 21 19 20 23 23 23 20 18 22 23 19 18 18 26 32 31 32 34 33 31 35 36 37 29 16 29 40 22 5 12 30 34 32 35 33 32 31 27 26 23 23 23 20 20 13 5 8 11 10 12 6 2 8 9 9 9 7 3 2 2 2 3 3 3 5 2 1 6 5 6 12 13 15 18 19 18 14 13 15 19 22 22 22
22 22 22 22 22 22 20 18 21 25 26 24 20 21 22 20 18 17 22 28 30 31 34 35 31 33 36 38 30 15 24 38 30 13 7 25 37 34 36 35 34 34 30 27 24 23 21 18 18 12 4 8 11 8 8 5 6 9 9 6 4 5 5 4 3 2 3 2 3 4 1 0 4 4 7 6 5 12 17 17 19 19 17 16 18 21 22 23
21 21 20 21 22 21 21 19 19 25 28 27 23 21 22 22 20 19 21 25 31 31 32 35 33 33 34 35 34 22 21 30 31 22 9 17 33 32 32 34 35 35 32 29 25 22 18 16 19 10 4 11 10 4 6 8 7 7 7 4 2 2 2 4 1 3 4 1 4 5 1 2 2 7 12 8 6 9 13 15 17 20 20 18 18 21 23 24
19 19 19 20 21 21 21 20 19 22 28 27 23 21 20 22 22 21 22 23 27 31 30 34 36 34 31 29 32 29 22 21 25 28 18 14 26 31 30 32 33 33 31 29 26 22 18 16 17 10 8 13 8 4 8 8 6 4 4 3 1 4 2 3 3 4 4 4 7 7 2 4 6 14 13 7 9 11 12 15 16 18 21 20 20 22 24 25
18 17 18 19 20 21 22 21 18 20 26 25 21 20 19 20 21 22 23 22 21 26 30 33 36 34 32 24 23 31 28 18 18 28 27 20 26 33 31 31 31 29 27 25 23 21 19 16 16 13 9 11 10 9 7 4 3 2 2 2 1 1 3 4 3 5 5 5 8 7 2 4 6 12 10 9 10 12 16 17 17 19 20 21 21 22 24 26
18 17 17 18 19 21 21 21 18 18 23 24 19 18 19 18 19 19 20 23 19 22 30 35 36 32 30 22 17 29 34 24 17 23 30 26 27 34 33 32 30 28 25 22 22 22 21 18 16 13 10 11 14 10 3 3 3 2 2 1 1 2 4 6 3 7 5 4 8 7 2 5 7 7 7 10 12 12 17 17 18 19 20 21 22 23 24 25
17 17 18 17 18 20 21 21 18 17 21 23 19 16 19 18 18 18 17 22 20 19 27 35 41 34 21 17 18 26 35 34 24 19 27 28 27 34 33 32 30 27 25 21 21 23 21 18 15 14 12 10 10 6 4 3 2 3 2 2 1 3 3 4 2 5 3 3 4 4 2 2 4 2 2 6 10 12 16 17 18 20 20 22 22 23 25 25
17 17 18 17 18 19 20 21 18 17 19 21 19 14 17 19 19 20 19 22 21 22 25 26 43 41 16 12 19 27 37 40 32 22 25 28 28 34 35 33 31 28 26 22 20 21 20 17 13 9 8 6 4 5 4 2 1 1 1 2 3 3 3 2 2 2 2 4 1 1 2 5 6 4 5 8 9 9 14 17 18 19 20 22 22 24 26 27
17 17 17 17 18 18 20 21 18 17 16 17 19 13 14 19 22 21 18 21 22 24 23 18 33 31 10 18 28 32 41 42 36 27 26 29 29 36 37 34 32 27 24 18 15 19 17 13 10 5 3 4 4 6 5 4 6 5 4 4 3 3 3 4 3 1 2 3 1 0 1 7 9 10 14 15 12 11 14 15 16 18 21 23 24 26 26 28
18 17 17 16 17 18 19 21 18 17 15 15 18 14 10 14 19 19 17 18 18 16 12 14 25 15 1 24 33 28 36 39 36 30 28 32 32 36 36 32 32 28 21 12 10 17 15 8 6 5 5 7 7 7 6 8 10 9 8 5 4 4 4 4 4 3 1 3 2 4 4 7 8 11 15 13 10 13 15 15 16 18 20 23 25 27 28 29
18 17 17 16 16 17 18 20 18 16 15 14 16 14 10 11 10 9 13 18 20 22 18 17 25 10 8 18 30 23 29 34 36 34 31 34 37 35 32 29 26 21 15 9 8 14 14 7 6 8 8 10 11 8 6 7 8 7 5 4 4 5 3 4 4 4 1 3 3 5 6 7 8 10 14 13 8 10 14 15 17 19 20 22 24 27 28 29
16 15 16 15 15 16 17 19 17 15 15 14 16 14 10 12 8 5 10 15 22 28 30 29 26 12 8 12 29 28 30 29 33 38 33 35 40 32 25 25 19 10 11 12 10 9 10 8 8 8 9 11 10 7 7 6 6 5 5 4 3 4 4 4 4 3 1 2 4 2 3 8 10 10 16 14 9 12 18 17 18 21 22 22 23 25 26 27
15 15 15 14 15 15 16 18 16 14 15 14 17 16 11 14 13 9 7 8 14 20 30 37 34 25 14 9 25 31 29 21 22 34 35 35 38 28 21 21 14 7 8 10 10 7 7 8 7 8 10 10 6 7 9 7 6 5 4 4 3 3 3 4 3 3 2 1 3 1 2 8 10 10 15 15 12 16 24 22 23 25 23 25 26 26 26 25
15 14 14 14 14 14 15 16 15 14 16 16 18 20 15 12 12 9 5 3 4 9 23 35 34 28 22 12 23 32 27 19 18 29 37 37 34 30 25 17 11 9 9 9 11 10 7 6 9 13 13 12 7 7 9 7 5 4 4 5 3 2 2 2 3 3 2 0 2 1 3 7 7 7 11 17 17 19 24 25 26 27 26 29 30 29 28 26
15 15 14 14 13 15 15 14 15 15 17 18 19 21 18 12 12 7 3 3 3 5 15 27 30 28 25 14 21 32 28 25 26 31 40 39 31 27 24 17 11 9 9 12 12 9 4 6 14 14 11 13 10 7 9 7 4 4 4 6 4 3 5 3 1 2 2 3 1 1 5 6 6 7 9 10 11 14 21 22 24 27 28 30 30 30 30 29
15 15 14 14 14 15 15 14 15 16 16 18 19 20 19 16 12 6 3 0 4 5 8 16 21 25 29 21 15 27 27 21 27 36 44 43 34 23 18 18 12 8 13 13 9 6 3 8 16 13 8 11 10 7 9 8 5 3 4 6 8 7 6 3 1 3 2 4 2 1 4 6 4 6 8 6 3 8 13 14 18 25 27 29 30 29 30 30
14 14 14 15 15 16 16 13 14 16 15 17 18 18 17 15 12 8 6 2 4 5 7 13 14 16 26 25 21 26 21 12 20 35 43 43 38 25 15 13 6 7 15 10 4 2 2 7 11 11 10 11 10 8 8 8 7 3 5 7 9 8 7 5 3 2 1 4 3 1 4 6 5 5 7 6 5 8 9 8 14 23 25 27 29 29 29 29
13 14 14 14 15 16 16 11 13 17 15 14 14 15 16 13 11 10 8 2 5 7 9 14 13 12 17 22 28 23 10 12 18 28 40 38 34 26 15 10 5 6 10 7 4 2 4 9 7 9 10 8 9 8 7 9 8 3 6 9 9 7 8 6 5 3 2 2 4 3 2 4 6 6 6 4 5 8 8 7 11 19 25 28 29 28 28 27
13 14 14 14 15 15 14 12 14 16 15 10 6 9 13 13 13 11 6 4 4 8 10 13 13 14 14 22 36 20 9 24 20 21 41 35 26 21 11 13 12 9 8 8 7 2 5 11 10 11 10 6 8 7 9 11 6 4 5 9 8 6 6 5 5 2 1 2 4 3 1 3 5 6 5 2 7 10 10 8 9 15 24 27 29 28 28 27
13 13 13 14 14 15 16 17 15 12 12 10 4 5 11 16 14 8 3 4 2 4 6 14 15 16 17 21 30 16 14 22 10 16 37 29 21 14 6 14 17 12 5 3 6 2 1 10 14 13 9 8 6 5 10 12 4 4 6 8 6 5 5 4 4 2 2 1 4 3 2 3 5 5 3 2 6 10 9 8 9 15 20 23 27 29 28 27
13 13 13 14 16 18 19 21 19 12 8 7 6 7 14 18 11 4 6 4 3 2 6 14 16 20 22 15 10 10 13 11 10 21 24 15 16 12 10 16 14 9 3 5 4 2 2 7 12 7 5 7 7 5 4 8 9 10 8 8 6 4 4 3 2 3 2 3 5 5 5 3 4 5 5 5 5 8 9 7 9 15 20 21 22 26 28 27
14 13 14 15 16 18 20 21 22 17 10 6 7 13 17 13 4 5 7 0 2 4 8 8 12 21 24 14 3 8 10 5 15 24 13 5 10 12 14 12 7 5 3 4 4 2 5 7 6 2 5 10 10 5 4 4 12 11 5 5 5 2 2 3 3 2 1 5 5 5 4 5 6 6 4 6 6 5 8 8 9 13 21 24 21 21 24 24
14 14 15 17 17 17 18 17 17 15 13 9 9 15 14 6 4 5 2 2 0 6 8 8 10 16 22 16 5 9 10 7 13 19 13 9 8 11 13 11 8 6 4 6 3 2 2 3 2 2 6 11 10 5 3 3 5 6 4 7 5 2 2 0 1 1 3 5 3 2 2 3 8 6 5 8 8 8 10 12 13 14 20 25 21 18 18 16
15 15 16 18 19 19 19 16 13 10 9 10 12 13 8 3 7 7 4 1 1 2 7 12 13 15 20 15 5 8 9 7 13 16 15 12 8 11 9 9 12 6 5 9 5 3 1 5 3 1 3 10 11 9 5 2 4 6 6 7 6 5 4 4 4 2 4 4 2 1 1 3 6 4 8 11 11 13 13 15 18 17 18 20 18 17 15 14
15 17 18 20 21 20 20 18 14 12 9 9 11 9 7 6 6 9 11 6 3 3 4 11 15 17 18 13 10 12 6 3 13 15 14 11 8 9 6 9 14 4 5 10 4 6 7 2 5 5 3 10 12 9 9 8 7 7 5 5 6 5 5 7 5 3 4 1 2 2 1 4 3 2 7 11 13 15 13 14 16 18 20 20 20 21 20 19
13 16 19 22 23 22 21 19 17 16 12 10 8 5 7 7 4 7 10 5 1 3 2 9 17 16 13 9 11 14 4 2 13 12 11 13 10 11 11 13 17 8 8 11 3 5 11 3 3 2 1 9 11 6 7 12 8 4 3 4 4 4 4 4 4 4 5 2 1 2 3 4 4 6 9 8 9 12 14 16 18 22 23 20 21 24 24 23
13 17 20 24 25 24 23 20 18 18 14 9 5 5 6 5 3 5 6 6 5 2 2 9 14 12 9 6 9 12 2 3 14 10 7 12 11 13 13 11 14 11 11 12 4 3 8 2 4 4 4 4 7 6 6 9 7 2 3 5 4 3 7 5 1 1 4 2 3 2 5 5 3 7 10 5 3 7 10 12 17 22 21 19 22 26 27 26
16 19 23 26 25 24 24 22 19 19 14 7 4 6 4 4 4 4 4 8 9 6 5 7 8 8 8 5 6 11 4 5 13 9 5 9 9 11 11 8 12 13 11 8 3 3 6 3 3 1 4 0 3 8 5 3 5 5 5 7 3 2 4 5 2 2 3 3 3 2 5 5 2 5 6 3 6 9 10 8 9 12 12 14 19 21 21 21
18 19 24 28 26 24 23 21 21 21 13 7 7 9 6 5 4 4 4 9 12 10 7 5 3 3 7 9 7 8 9 9 10 8 7 6 5 10 14 10 12 15 11 4 3 2 5 5 3 2 3 1 1 7 5 1 1 4 6 6 4 2 3 2 3 2 3 3 3 3 4 4 6 6 4 3 7 11 11 6 3 7 11 14 17 15 12 12
15 14 20 26 27 26 23 20 23 22 12 6 7 7 6 5 7 10 11 11 11 10 7 4 2 1 4 9 10 9 12 12 10 7 8 6 4 12 19 12 10 16 13 5 4 3 5 5 0 3 0 1 1 2 8 5 2 3 4 5 2 1 3 3 3 3 4 4 3 3 4 4 7 7 6 8 9 9 10 7 5 11 15 15 14 11 7 6
15 9 11 17 20 23 24 22 23 19 9 6 8 7 7 7 8 15 20 15 8 10 8 3 2 4 3 5 9 11 11 11 13 10 8 10 7 9 18 14 9 14 10 5 5 3 3 4 4 1 2 2 2 4 8 9 5 3 5 6 3 1 2 2 1 2 4 4 3 1 3 5 5 4 9 12 11 10 9 7 6 8 10 9 8 6 4 3
15 8 6 11 14 20 28 23 16 11 6 7 8 8 11 9 7 13 22 20 12 11 13 7 5 6 5 6 7 8 9 10 13 10 6 11 9 6 18 20 13 14 10 6 6 4 2 4 6 4 2 3 2 4 3 6 7 6 6 6 6 3 3 4 3 1 2 3 4 4 3 7 5 4 7 11 10 8 5 4 4 5 6 8 7 3 2 2
14 9 6 10 11 24 32 18 8 9 7 9 12 13 15 11 8 12 17 19 15 10 10 9 7 6 6 9 8 8 10 10 13 11 7 14 15 8 17 25 22 20 13 6 5 4 4 5 6 3 4 4 3 3 2 3 4 5 3 5 6 4 4 6 6 3 2 1 2 4 1 7 6 5 6 7 5 5 3 1 3 4 6 9 6 3 2 1
16 16 10 11 17 30 29 9 6 10 7 11 17 20 20 13 8 11 14 15 11 5 5 7 8 8 5 6 9 9 9 9 14 15 10 14 15 8 18 32 29 21 12 6 6 6 5 5 5 3 0 3 4 3 2 1 2 4 5 4 7 6 4 5 4 4 4 4 3 3 2 7 6 3 5 7 7 8 6 3 3 6 9 9 6 4 2 2
19 21 13 16 30 37 24 6 7 10 8 12 14 18 21 17 12 12 13 15 11 5 5 6 9 12 7 5 9 12 12 8 10 12 7 6 7 7 23 38 32 19 9 8 11 8 4 3 5 6 3 2 3 3 2 3 4 4 3 3 6 6 6 4 2 3 2 6 7 5 5 7 5 4 4 5 7 8 8 6 5 8 10 10 8 5 3 2
14 16 13 21 33 28 15 9 11 9 11 14 13 16 18 15 16 19 16 16 17 12 7 7 10 12 10 10 10 12 13 7 5 9 5 2 1 4 22 37 32 18 9 13 17 11 5 4 6 8 9 8 7 5 4 5 3 1 2 4 3 5 8 5 2 3 4 5 7 7 9 4 4 6 6 5 6 6 6 7 8 10 10 10 8 6 5 4
7 7 8 16 26 23 16 17 16 10 11 15 12 15 19 14 16 24 23 18 21 20 11 8 12 12 12 16 13 13 15 4 2 7 5 5 3 2 19 36 31 21 16 22 25 13 5 4 6 9 13 11 7 4 5 9 7 3 4 7 5 5 6 6 4 4 6 4 5 13 12 4 3 7 6 6 7 6 5 5 8 11 11 9 8 7 6 5
7 5 6 8 14 18 17 18 16 10 12 17 12 11 20 20 14 18 23 19 21 24 14 8 12 12 14 20 14 13 16 5 4 9 4 4 2 2 15 27 23 24 23 23 25 13 4 5 8 9 11 6 5 7 9 13 12 9 9 10 9 9 9 8 9 11 7 7 9 17 12 9 8 8 7 7 6 6 7 7 9 11 11 9 9 8 6 4
12 9 12 13 8 7 11 16 17 15 18 19 14 12 21 26 19 16 18 17 20 24 16 10 14 14 15 21 15 12 14 6 6 11 6 4 5 6 11 11 13 26 25 17 20 13 3 7 8 7 7 3 4 8 10 12 12 12 13 14 13 14 15 15 19 17 12 10 17 10 11 15 13 8 9 9 8 8 8 8 9 10 11 10 9 8 6 3
16 10 11 17 12 8 14 20 23 23 24 21 16 16 21 27 26 19 13 13 16 20 18 14 15 16 17 20 17 14 16 12 10 12 9 11 12 10 11 7 10 22 21 11 13 10 5 7 7 7 6 4 5 5 7 9 11 11 13 17 16 17 19 20 25 22 15 17 21 6 5 11 10 8 10 10 8 9 8 8 11 11 12 12 10 10 7 5
20 13 9 13 13 14 18 20 19 20 22 21 18 18 21 26 30 23 15 16 16 15 19 20 18 18 18 19 18 16 19 21 20 19 18 17 16 13 13 12 11 16 17 10 8 8 7 7 7 8 6 3 3 3 4 6 10 11 12 14 16 20 23 25 26 18 11 18 22 8 6 12 8 9 10 8 6 6 8 13 16 14 14 16 17 15 10 7
32 25 16 10 8 13 16 14 15 16 16 18 18 18 21 26 32 25 17 21 23 18 20 22 21 19 18 21 21 20 25 26 20 20 23 20 15 9 5 8 13 16 15 11 7 6 6 6 6 8 7 2 2 4 7 6 6 6 9 15 19 21 21 19 17 11 12 18 18 11 12 11 6 7 8 9 9 10 13 17 18 20 24 24 22 18 14 13
33 30 27 18 11 14 15 12 15 16 13 16 20 22 22 25 31 28 17 19 26 26 28 28 23 17 16 22 29 31 32 25 15 20 26 20 13 8 8 12 17 17 13 8 4 4 6 6 5 7 8 2 2 4 8 8 6 3 12 20 24 19 14 12 11 13 16 14 10 12 14 7 8 10 8 8 8 9 15 21 25 30 32 29 25 21 18 19
Wind_Direction
226 227 232 237 237 239 244 239 233 227 208 202 208 211 215 219 221 222 220 221 221 212 201 198 199 203 205 204 202 198 195 202 214 217 214 206 199 196 193 198 208 210 211 218 226 232 233 233 229 223 215 209 204 185 164 157 157 139 109 112 174 179 197 186 178 190 162 18 344 194 191 189 191 187 182 181 192 196 193 197 204 205 208 199 180 163 182 187
226 226 229 234 235 237 242 243 236 230 221 204 204 209 212 220 223 222 220 217 218 214 205 200 199 202 204 202 204 203 202 208 218 221 217 209 201 198 193 190 198 209 214 220 229 232 229 221 209 204 201 193 184 177 171 162 158 144 103 134 198 194 204 191 192 207 182 298 316 303 207 207 210 187 183 188 198 191 188 204 210 212 213 208 195 178 186 191
224 225 226 231 233 235 240 246 239 228 225 214 206 208 210 217 223 222 215 212 213 212 208 203 201 202 202 204 207 208 210 215 226 226 217 210 205 205 204 193 191 202 212 219 222 223 226 219 203 194 188 177 169 172 169 160 161 154 127 153 221 206 213 12 326 229 235 280 302 344 213 214 218 196 190 198 189 192 209 210 208 215 216 212 205 195 190 196
223 222 224 229 231 230 234 238 237 226 224 220 210 211 214 215 217 216 209 207 209 209 207 204 204 203 203 206 208 209 211 220 235 229 219 213 210 209 208 197 189 196 204 204 200 196 202 205 197 188 179 159 156 170 171 164 166 163 149 172 188 180 175 127 74 15 305 310 309 291 170 216 217 203 195 185 161 220 229 221 218 223 221 214 210 206 199 201
222 222 220 225 228 226 224 226 230 227 226 224 215 213 217 215 211 210 209 207 206 206 205 204 204 204 205 207 208 209 205 215 244 232 224 216 211 212 212 202 188 192 197 193 190 183 183 190 184 177 169 141 149 165 178 168 156 142 146 150 144 147 153 187 344 344 295 303 296 232 166 215 202 202 203 190 193 231 235 232 230 233 231 224 219 213 207 205
222 222 219 220 224 225 221 218 220 224 227 226 223 218 218 220 211 208 211 210 208 204 202 204 204 204 206 207 211 208 197 196 268 234 224 214 211 215 212 200 184 188 194 190 188 183 178 179 176 171 153 128 163 165 172 171 164 149 169 166 151 150 149 269 320 334 289 268 262 218 217 219 184 208 213 205 220 231 240 250 243 239 234 231 228 219 213 210
220 221 220 218 220 222 220 215 212 214 224 227 225 222 221 223 213 206 209 209 207 204 200 203 202 201 200 198 201 198 197 205 344 223 213 206 203 201 195 187 179 182 189 188 188 186 180 176 175 172 144 115 177 162 156 167 175 166 169 188 181 187 198 328 330 343 261 232 256 243 244 223 198 212 215 219 230 231 238 261 254 244 234 228 227 223 222 221
218 220 219 218 219 221 218 216 210 208 220 228 226 225 226 227 217 205 205 206 204 202 199 199 200 197 190 184 182 185 198 201 133 108 189 191 188 183 178 180 181 181 186 191 191 186 182 180 178 173 152 141 168 156 151 144 173 193 176 182 179 196 225 322 328 46 269 234 266 244 241 239 218 214 220 234 236 230 231 242 256 249 231 227 227 226 226 223
216 217 216 216 218 219 219 218 214 209 214 223 226 224 227 228 224 209 204 206 203 202 199 197 201 196 188 185 180 189 203 192 173 106 173 185 184 178 178 181 185 186 187 193 192 187 185 183 180 176 176 166 155 156 162 149 230 207 184 175 172 187 212 342 329 101 329 253 238 224 237 255 224 220 247 248 244 235 233 235 242 247 232 228 229 228 226 223
215 215 213 213 216 217 217 216 216 214 212 219 223 220 222 223 225 214 202 204 205 205 200 195 200 196 192 192 185 202 205 190 189 180 168 184 182 179 182 184 187 189 191 192 190 192 191 187 181 175 168 160 151 157 172 173 181 173 168 174 180 192 212 330 325 294 263 235 207 198 213 241 194 192 252 252 241 234 232 233 235 239 240 233 231 230 227 226
212 212 210 209 212 215 214 212 213 213 212 218 224 221 221 223 226 216 201 204 209 210 203 196 198 199 196 194 194 203 201 198 200 194 169 183 184 182 184 188 191 191 193 193 192 194 194 191 180 167 165 168 153 151 173 166 128 135 146 162 210 224 240 274 309 268 215 191 202 181 137 78 153 194 248 242 222 224 225 230 232 234 239 236 232 230 227 227
209 208 206 205 208 211 212 211 207 209 209 213 225 228 227 230 231 222 208 204 207 211 206 198 198 203 199 197 205 201 193 206 204 196 197 184 186 187 185 191 197 196 195 194 193 192 194 193 180 171 165 162 146 137 175 161 129 114 130 142 316 330 275 254 205 189 188 152 161 141 36 293 191 231 247 238 218 221 221 226 229 231 235 234 232 229 227 227
204 204 203 201 203 206 209 210 206 205 205 208 220 226 226 230 232 230 217 200 198 205 206 199 199 204 200 202 213 207 196 209 206 202 210 195 188 191 191 195 202 204 201 197 194 191 192 192 191 189 151 153 143 127 157 145 123 97 101 123 7 8 319 221 157 171 178 167 158 142 260 276 246 242 250 258 235 224 224 227 228 231 232 231 230 228 228 226
201 202 202 198 199 202 204 208 206 202 203 205 212 219 222 222 228 235 224 208 195 197 202 201 199 203 205 209 215 211 205 205 208 209 210 204 191 191 195 197 200 203 201 202 200 195 193 192 199 191 154 155 140 118 123 87 87 114 76 45 74 114 267 256 176 164 156 175 173 152 227 257 263 260 262 262 244 229 229 230 230 231 231 230 229 228 229 228
200 201 200 197 197 198 200 206 205 200 204 205 205 214 219 215 220 231 229 221 208 199 203 202 199 197 201 214 217 210 211 208 212 213 208 206 194 190 192 191 193 195 195 199 201 199 197 194 194 177 145 148 139 117 85 28 26 52 112 321 329 168 256 295 239 189 172 180 177 155 197 259 266 284 290 251 234 228 234 235 232 231 231 230 230 230 231 232
199 200 200 198 196 196 198 202 203 199 201 203 202 209 215 216 215 217 227 226 218 209 202 197 198 196 195 214 215 206 210 212 211 211 208 208 200 190 186 185 187 190 190 191 198 199 194 190 184 164 140 137 139 113 76 67 13 1 115 177 227 181 226 304 274 219 182 139 177 191 199 249 250 251 340 258 238 232 239 243 237 234 233 231 232 233 234 235
198 199 200 197 194 195 196 200 200 196 200 202 200 201 206 213 216 216 224 227 225 217 210 198 192 194 196 202 204 202 207 210 208 206 204 207 204 191 182 182 185 187 188 190 196 193 185 179 172 160 146 135 142 133 122 142 168 33 72 156 216 204 186 229 280 284 80 103 185 275 215 242 265 250 242 257 257 244 243 250 250 244 240 237 236 236 237 237
197 199 200 195 193 192 194 201 200 195 199 200 200 198 196 205 214 219 224 229 233 224 232 232 189 185 202 197 198 202 203 206 205 202 200 199 198 191 183 181 184 184 181 183 188 182 176 173 164 148 145 152 161 160 172 182 159 164 180 178 217 224 201 219 240 252 68 78 181 133 248 256 273 276 261 254 249 248 253 260 262 256 249 243 240 239 240 240
197 199 200 196 193 190 192 200 203 198 199 198 200 199 187 188 201 216 224 225 227 216 235 242 192 175 266 196 195 200 199 201 200 197 195 190 188 188 184 181 180 176 169 166 184 180 169 157 163 175 176 173 177 180 181 173 168 175 176 160 158 180 230 238 237 259 130 100 202 205 217 247 258 268 268 259 245 247 257 262 260 258 253 247 244 242 242 242
195 195 196 199 195 190 191 199 206 202 199 199 193 190 181 167 172 204 214 217 224 216 215 218 197 179 39 172 182 185 187 192 195 192 189 187 183 180 179 175 171 171 171 165 178 181 171 167 191 191 178 171 176 175 158 155 160 154 135 111 139 168 248 254 244 288 137 134 251 222 210 242 247 256 263 256 247 250 251 253 256 259 258 253 248 247 246 246
195 193 193 198 195 191 192 199 207 202 200 200 188 186 182 173 176 172 183 215 234 226 223 228 225 248 352 159 178 180 171 177 193 191 186 183 179 172 169 170 165 176 190 163 147 165 177 194 201 184 163 160 166 151 127 125 123 121 132 131 151 184 238 242 234 305 42 157 276 257 212 246 245 252 260 250 230 246 250 248 255 259 262 263 260 255 252 253
194 195 193 196 194 192 192 197 205 200 199 200 193 197 191 180 195 201 180 216 238 229 226 232 240 258 279 196 183 185 170 163 182 185 180 175 174 172 166 171 173 176 177 151 136 155 192 207 185 156 142 136 137 134 130 132 130 126 130 135 168 202 242 265 270 326 19 174 269 306 249 258 254 252 261 253 228 243 253 250 254 258 260 265 266 264 260 259
194 195 195 194 191 189 192 196 200 199 200 202 200 202 199 181 179 196 212 218 242 226 222 229 238 248 259 231 184 181 173 164 172 179 177 171 173 176 167 169 180 159 158 172 167 169 194 202 160 146 144 139 137 145 138 130 140 145 130 143 192 195 183 252 275 315 13 110 257 278 289 272 264 256 261 256 240 244 255 255 258 258 258 262 264 265 264 263
194 194 195 193 189 190 194 195 196 201 204 207 210 206 205 195 165 149 170 216 285 215 209 223 230 239 249 238 183 179 180 180 178 179 178 172 170 172 167 165 166 153 169 189 180 166 159 157 149 145 151 154 150 154 148 137 155 183 171 160 167 177 183 197 266 328 351 339 330 25 309 279 248 247 253 253 240 243 252 252 255 254 255 260 260 261 263 262
192 193 195 192 190 192 195 198 199 202 204 210 217 209 209 211 196 171 129 309 279 198 195 210 220 238 237 237 212 185 183 188 186 182 180 176 170 162 162 165 160 165 180 180 172 158 136 152 150 144 153 155 149 164 167 153 149 187 219 183 168 172 179 183 100 41 12 307 320 71 275 271 260 252 249 255 243 242 250 249 250 252 253 254 255 259 260 260
194 193 194 191 193 194 196 204 206 205 207 218 221 210 208 208 202 188 145 23 279 186 166 175 193 229 221 229 227 187 180 197 192 184 179 178 176 163 153 163 154 173 175 163 161 162 156 168 153 146 157 155 159 181 185 162 139 183 226 183 164 152 142 148 144 110 183 245 295 72 219 266 306 275 249 251 257 256 259 257 253 254 253 250 252 257 257 257
198 196 194 193 194 195 196 200 205 207 209 222 226 213 206 195 183 166 143 270 251 157 145 163 174 197 201 215 206 185 171 164 168 181 178 176 180 170 159 168 151 165 169 148 173 186 146 162 152 146 151 155 173 188 193 161 138 214 217 161 144 130 140 144 121 127 225 245 322 15 158 265 284 261 251 235 256 276 275 268 258 252 251 249 249 253 255 254
201 199 197 196 198 201 199 200 207 209 208 216 220 202 196 184 171 155 149 245 196 128 141 157 166 181 183 193 191 182 139 153 154 180 178 175 180 174 171 182 164 154 172 172 184 179 131 166 170 156 155 179 184 172 167 154 142 234 199 144 141 131 139 131 103 119 344 9 303 320 122 253 265 268 291 270 249 262 264 260 254 246 248 249 247 249 252 252
202 203 201 195 199 205 205 210 215 211 212 217 206 178 176 171 161 144 204 236 128 83 145 151 157 167 159 175 186 172 144 160 153 168 173 174 182 179 170 174 158 136 149 172 169 157 117 181 172 156 166 194 173 138 161 158 147 186 137 103 100 89 92 96 106 123 38 356 243 226 175 243 270 262 270 285 247 241 247 254 250 248 248 248 246 246 248 250
200 206 206 200 200 204 208 215 216 208 204 202 199 187 166 158 153 166 223 215 85 79 137 147 154 152 152 170 188 161 155 161 129 147 164 171 172 161 119 137 134 122 108 33 99 140 31 152 164 159 175 167 122 85 147 151 135 130 110 87 78 55 61 65 68 89 60 271 245 216 182 183 276 266 216 215 224 213 220 233 242 248 247 244 241 240 242 246
203 204 208 210 206 206 211 218 218 216 210 189 188 185 165 148 149 212 210 230 37 157 142 149 154 145 156 171 176 170 167 128 137 149 155 153 154 140 121 122 97 89 107 59 78 25 52 132 176 224 158 132 107 77 25 104 139 128 102 118 108 47 52 40 13 65 198 251 259 244 183 168 234 256 227 237 253 224 213 219 225 231 236 237 236 234 236 239
207 207 213 218 216 212 213 220 223 219 216 213 194 175 161 149 207 218 220 45 102 182 150 150 155 149 162 164 153 178 161 136 158 159 157 162 163 162 161 165 153 129 157 169 139 48 74 178 264 337 168 155 131 119 29 25 149 129 117 141 130 109 106 28 263 200 240 242 250 240 160 203 240 246 247 255 262 245 225 223 229 230 231 233 232 233 232 232
210 211 217 223 224 219 213 218 217 208 212 209 190 174 168 209 202 200 221 171 39 214 157 151 154 154 159 155 147 174 159 160 173 162 161 168 173 180 176 162 156 141 158 163 132 92 65 315 299 54 207 188 163 155 163 184 172 153 148 157 155 144 156 202 203 227 253 245 268 242 165 258 275 271 242 241 243 243 240 238 244 248 246 242 242 246 246 243
215 219 225 227 230 226 218 218 213 216 222 188 177 182 194 213 187 186 207 205 6 316 178 150 150 155 163 161 159 163 148 174 177 164 160 166 176 183 165 163 173 143 109 150 148 155 158 279 219 182 197 190 181 176 163 145 155 175 160 149 168 168 172 192 186 192 213 213 301 268 202 213 223 268 247 244 255 264 265 260 259 259 254 254 258 259 257 256
220 224 229 229 230 226 223 220 212 221 223 177 167 211 207 202 179 184 204 193 110 290 249 156 151 155 168 167 164 170 157 179 180 169 161 168 180 183 173 181 185 161 133 163 176 170 172 198 259 249 150 171 174 168 136 132 149 204 148 130 189 190 149 151 179 171 149 128 257 221 233 219 206 276 273 257 266 273 264 257 258 257 256 261 268 269 270 273
222 223 228 230 227 223 223 221 211 215 215 180 180 232 218 215 197 179 193 179 165 191 200 168 159 157 165 156 172 186 187 154 172 168 171 177 183 188 185 183 183 173 164 165 142 163 176 188 329 351 43 142 164 150 140 149 156 142 146 179 210 156 112 113 179 55 97 170 239 204 250 284 317 287 277 260 265 282 268 251 247 250 257 267 271 271 274 279
223 226 230 230 226 223 223 218 213 213 207 186 215 232 229 243 231 204 183 162 152 156 181 184 170 165 161 140 171 183 155 143 170 166 167 182 191 193 188 184 185 188 186 166 132 186 158 100 343 31 92 40 158 138 132 138 140 136 178 195 169 85 90 109 133 24 76 203 266 244 244 278 281 263 291 283 236 257 264 249 248 256 259 263 263 264 269 275
227 235 242 238 230 225 221 211 207 208 198 188 228 238 239 231 218 234 205 157 151 168 195 203 187 168 164 158 160 174 168 159 168 169 161 176 208 189 183 188 188 191 196 165 106 167 132 97 341 345 127 215 37 129 142 357 69 152 179 176 138 156 212 140 144 160 150 200 273 301 284 262 214 223 297 284 222 239 254 247 245 256 248 247 252 256 265 270
227 242 254 247 233 224 218 205 197 197 192 196 221 231 241 231 211 222 216 181 163 177 201 229 210 149 174 171 152 160 183 174 160 165 168 175 205 189 188 190 182 187 190 156 134 156 113 109 233 318 91 163 32 160 184 191 16 48 128 164 145 152 186 168 157 163 159 186 232 310 320 268 224 210 213 228 226 228 242 243 228 239 245 248 248 246 250 259
216 234 256 240 227 218 206 194 189 189 191 208 214 221 232 232 220 222 221 209 181 176 192 241 203 158 160 176 162 166 186 178 167 172 181 179 174 183 193 191 171 176 167 111 130 144 84 111 140 358 321 173 179 224 194 173 155 126 153 183 195 110 127 159 159 125 130 159 189 244 283 265 253 206 196 216 229 220 214 222 238 256 263 253 234 225 231 245
207 228 230 205 211 199 184 180 181 184 196 210 217 232 234 231 220 220 224 227 228 199 190 199 194 170 149 163 181 181 175 171 176 181 178 179 177 185 196 191 166 159 147 108 144 155 87 119 132 138 184 180 228 268 201 168 164 159 168 185 179 141 116 159 206 212 117 135 162 171 246 269 255 209 203 210 222 229 206 196 240 278 261 227 206 210 244 247
201 226 200 175 196 180 169 171 180 180 198 208 207 218 224 228 223 213 214 221 235 228 198 194 191 181 167 169 179 181 171 168 181 187 181 186 195 204 190 178 159 157 158 123 143 154 95 104 112 130 184 204 268 284 214 196 151 138 187 192 167 157 144 165 205 206 121 128 147 128 252 276 259 222 224 226 244 287 316 308 267 255 224 212 204 213 243 279
206 226 202 166 183 174 166 176 192 179 204 211 208 217 220 224 221 209 203 203 218 233 204 197 183 186 205 180 170 176 175 174 186 191 185 186 197 198 172 164 154 157 162 130 146 155 108 101 101 90 348 309 325 353 2 304 136 166 232 194 164 186 161 144 186 171 156 198 163 83 284 265 268 257 248 261 274 282 284 292 276 240 225 218 210 203 216 270
219 234 223 181 177 169 164 185 189 184 207 203 208 221 222 226 222 209 204 199 201 200 197 199 180 184 196 173 172 182 179 180 201 203 192 183 195 173 162 161 157 162 171 162 172 171 132 130 127 119 112 1 347 340 293 246 203 196 215 159 169 176 124 105 154 126 170 208 158 143 238 248 279 317 315 284 268 264 262 256 248 241 229 215 209 214 225 233
225 240 226 193 187 180 178 192 180 185 201 196 207 215 214 227 226 216 213 205 201 196 192 208 198 188 179 165 175 190 186 182 192 193 181 135 189 163 161 162 163 169 163 153 162 158 132 157 151 143 162 179 189 207 204 186 183 185 123 115 145 151 142 153 138 119 229 219 156 186 230 250 309 308 315 303 281 277 262 233 228 231 223 212 213 223 226 214
206 223 203 186 194 204 216 210 195 192 196 194 204 210 206 214 221 217 215 211 205 198 191 204 202 194 181 172 173 188 196 206 111 167 169 150 166 210 167 166 167 166 154 149 153 142 95 160 182 175 181 184 175 165 128 123 130 165 155 139 138 148 156 144 127 195 214 146 172 226 226 208 263 262 276 291 278 273 269 235 220 221 219 216 214 217 215 197
201 213 199 173 189 203 213 216 210 206 201 197 196 201 205 208 211 211 211 212 206 197 197 207 201 201 188 176 174 183 186 182 121 155 159 148 130 55 163 167 165 160 153 150 154 140 81 181 193 185 183 173 138 155 145 135 152 169 156 155 162 160 158 160 198 216 159 121 234 239 214 203 229 234 246 267 265 266 279 263 232 219 212 206 204 209 208 183
217 223 207 196 200 203 203 205 202 207 211 206 202 199 201 204 206 204 205 211 207 197 198 208 203 210 196 176 173 176 172 165 157 161 154 147 132 114 154 171 171 161 153 154 165 154 113 189 186 163 166 111 93 157 156 146 162 165 159 168 171 169 174 190 216 213 159 182 238 221 170 208 220 205 224 238 230 235 254 253 233 215 207 203 203 214 224 221
220 235 212 201 208 223 217 207 197 204 211 208 207 207 201 201 204 202 193 200 207 199 198 204 200 207 207 187 176 175 171 168 171 169 164 161 156 150 156 172 189 172 159 161 176 166 155 185 169 142 144 57 54 151 155 146 156 163 173 177 171 178 190 202 219 215 184 214 237 198 140 236 224 190 215 222 221 236 249 248 234 216 209 211 219 236 247 244
219 223 204 199 213 224 227 219 202 202 208 206 206 207 202 199 200 200 192 190 197 194 196 204 197 193 206 201 187 187 187 182 179 177 172 163 164 172 173 172 178 173 167 166 176 183 189 179 147 130 129 45 25 98 104 134 157 168 187 190 183 191 200 209 221 215 191 229 242 246 293 272 230 201 225 227 220 234 241 242 241 238 237 236 236 244 250 250
234 232 221 210 225 224 224 223 211 207 206 205 207 204 201 200 196 195 196 196 194 187 188 199 198 191 200 203 196 196 195 189 182 174 170 164 163 171 178 170 163 161 166 169 166 178 188 169 140 138 149 210 323 87 94 98 122 157 203 207 202 202 205 215 221 202 198 227 234 238 262 259 194 181 230 244 233 232 245 253 257 259 255 249 243 244 250 260
240 239 229 224 239 235 223 218 215 213 204 199 202 201 202 199 192 190 193 198 198 193 188 191 193 189 191 201 206 204 194 183 162 157 163 159 146 130 113 144 162 162 158 153 132 142 148 140 145 156 160 208 304 132 121 97 92 210 228 211 203 205 209 222 230 213 210 215 207 220 238 223 151 163 199 237 240 242 253 253 253 253 251 248 248 249 258 268